Soldotna, AK

4:42 PM AKST on December 06, 2019 (GMT -0900)
Soldotna

Weather History for PASX - October, 2019

Change the Weather History Date:

Tuesday, October 29, 2019

  Actual Average Record
Temperature  
Mean Temperature 44 °F -  
Max Temperature 51 °F 35 °F 51 °F (2019)
Min Temperature 37 °F 23 °F -1 °F (1953)
Degree Days  
Heating Degree Days 21    
Moisture  
Dew Point 39 °F    
Average Humidity 82    
Maximum Humidity 97    
Minimum Humidity 61    
Precipitation  
Precipitation 0.17 in - - ()
Sea Level Pressure  
Sea Level Pressure 29.93 in    
Wind  
Wind Speed 5 mph (ESE)    
Max Wind Speed 7 mph    
Max Gust Speed 18 mph    
Visibility 10 miles    
Events Rain    
Averages and records for this station are not official NWS values.
T = Trace of Precipitation, MM = Missing Value Source: NWS Daily Summary

Daily Weather History Graph

Daily Weather History Graph

Search for Another Location

Airport or City:

Astronomy

Oct. 29, 2019 Rise Set
Actual Time 9:20 AM AKDT 6:13 PM AKDT
Civil Twilight 8:35 AM AKDT 6:59 PM AKDT
Nautical Twilight 7:45 AM AKDT 7:48 PM AKDT
Astronomical Twilight 6:56 AM AKDT 8:37 PM AKDT
Moon 11:28 AM AKDT (10/29) 7:18 PM AKDT (10/29)
Length of Visible Light 10h 23m
Length of Day
8h 53m
Waxing Crescent, 4% of the Moon is Illuminated
Oct 29
Waxing Crescent
Nov 4
First Quarter
Nov 12
Full
Nov 19
Last Quarter
Nov 26
New

Hourly Weather History & Observations

Time (AKDT) Temp. Windchill Dew Point Humidity Pressure Visibility Wind Dir Wind Speed Gust Speed Precip Events Conditions
12:56 AM 37.9 °F 34.4 °F 35.1 °F 89% 29.94 in 10.0 mi East 4.6 mph - 0.00 in   Scattered Clouds
1:56 AM 37.9 °F 34.4 °F 35.1 °F 89% 29.94 in 10.0 mi East 4.6 mph - N/A   Partly Cloudy
2:56 AM 39.0 °F 34.0 °F 35.1 °F 86% 29.94 in 10.0 mi East 6.9 mph - N/A   Overcast
3:56 AM 39.9 °F 35.8 °F 35.1 °F 83% 29.93 in 10.0 mi East 5.8 mph - N/A   Overcast
4:56 AM 42.1 °F 40.2 °F 35.1 °F 76% 29.92 in 10.0 mi East 3.5 mph - N/A   Overcast
5:56 AM 45.0 °F 42.6 °F 37.0 °F 74% 29.91 in 10.0 mi ESE 4.6 mph - N/A   Mostly Cloudy
6:56 AM 42.1 °F 39.2 °F 39.0 °F 89% 29.91 in 10.0 mi ENE 4.6 mph - 0.00 in Rain Light Rain
7:56 AM 41.0 °F 39.0 °F 39.9 °F 96% 29.91 in 10.0 mi East 3.5 mph - 0.06 in Rain Light Rain
8:56 AM 44.1 °F 40.1 °F 39.9 °F 85% 29.91 in 10.0 mi East 6.9 mph - 0.01 in Rain Light Rain
9:56 AM 43.0 °F 39.5 °F 39.9 °F 89% 29.92 in 10.0 mi East 5.8 mph - 0.00 in   Overcast
10:56 AM 46.0 °F 43.9 °F 39.0 °F 76% 29.93 in 10.0 mi SSE 4.6 mph - N/A   Scattered Clouds
11:56 AM 46.9 °F - 37.9 °F 71% 29.93 in 10.0 mi Variable 3.5 mph - N/A   Partly Cloudy
12:56 PM 48.0 °F - 41.0 °F 77% 29.94 in 10.0 mi East 3.5 mph - N/A   Mostly Cloudy
1:56 PM 50.0 °F - 37.9 °F 63% 29.93 in 10.0 mi Variable 4.6 mph - N/A   Partly Cloudy
2:56 PM 51.1 °F - 37.9 °F 61% 29.93 in 10.0 mi South 6.9 mph - N/A   Mostly Cloudy
3:56 PM 50.0 °F - 37.9 °F 63% 29.93 in 10.0 mi SSE 6.9 mph 18.4 mph N/A   Overcast
4:56 PM 50.0 °F - 37.9 °F 63% 29.92 in 10.0 mi South 4.6 mph - 0.00 in Rain Light Rain
5:56 PM 46.9 °F - 39.9 °F 77% 29.92 in 10.0 mi SE 4.6 mph - 0.01 in Rain Light Rain
6:56 PM 43.0 °F - 42.1 °F 97% 29.93 in 10.0 mi Calm Calm - 0.02 in Rain Light Rain
7:56 PM 43.0 °F - 41.0 °F 93% 29.92 in 10.0 mi Calm Calm - 0.01 in Rain Light Rain
8:56 PM 44.1 °F 42.5 °F 39.9 °F 85% 29.93 in 10.0 mi ESE 3.5 mph - 0.01 in Rain Light Rain
9:56 PM 42.1 °F - 41.0 °F 96% 29.94 in 10.0 mi Calm Calm - 0.01 in Rain Light Rain
10:56 PM 43.0 °F 39.5 °F 41.0 °F 93% 29.95 in 10.0 mi SE 5.8 mph - 0.03 in Rain Rain
11:56 PM 43.0 °F 39.5 °F 39.9 °F 89% 29.95 in 10.0 mi SSE 5.8 mph - 0.01 in   Overcast